Time,TemperatureF,DewpointF,PressureIn,WindDirection,WindDirectionDegrees,WindSpeedMPH,WindSpeedGustMPH,Humidity,HourlyPrecipIn,Conditions,Clouds,dailyrainin,SoftwareType,DateUTC
2013-01-26 00:00:00,5.9,-9.1,30.10,South,171,0.0,0.0,49,0.00,,,0.00,VWS V14.01,2013-01-26 05:00:00,
2013-01-26 00:01:00,5.9,-9.1,30.10,South,171,0.0,0.0,49,0.00,,,0.00,VWS V14.01,2013-01-26 05:01:00,
2013-01-26 00:02:00,5.9,-9.1,30.10,SSW,203,0.0,0.0,49,0.00,,,0.00,VWS V14.01,2013-01-26 05:02:00,
2013-01-26 00:07:00,5.9,-9.1,30.10,SSW,203,0.0,0.0,49,0.00,,,0.00,VWS V14.01,2013-01-26 05:07:00,
2013-01-26 00:12:00,5.9,-9.1,30.10,SSW,203,0.0,0.0,49,0.00,,,0.00,VWS V14.01,2013-01-26 05:12:00,
2013-01-26 00:17:00,5.9,-9.1,30.10,NNW,338,0.0,0.0,49,0.00,,,0.00,VWS V14.01,2013-01-26 05:17:00,
2013-01-26 00:22:00,5.7,-9.3,30.10,NNW,337,0.0,0.0,49,0.00,,,0.00,VWS V14.01,2013-01-26 05:22:00,
2013-01-26 00:27:00,5.7,-9.3,30.10,NNW,337,0.0,0.0,49,0.00,,,0.00,VWS V14.01,2013-01-26 05:27:00,
2013-01-26 00:32:00,5.7,-9.3,30.10,WNW,290,0.0,0.0,49,0.00,,,0.00,VWS V14.01,2013-01-26 05:32:00,
2013-01-26 00:37:00,5.7,-9.3,30.10,WNW,294,0.0,0.0,49,0.00,,,0.00,VWS V14.01,2013-01-26 05:37:00,
2013-01-26 00:42:00,5.7,-9.3,30.10,WNW,294,0.0,0.0,49,0.00,,OVC090,0.00,VWS V14.01,2013-01-26 05:42:00,
2013-01-26 00:47:00,5.7,-9.3,30.10,WNW,294,0.0,0.0,49,0.00,,OVC090,0.00,VWS V14.01,2013-01-26 05:47:00,
2013-01-26 00:52:00,5.7,-9.3,30.10,WNW,294,0.0,0.0,49,0.00,,,0.00,VWS V14.01,2013-01-26 05:52:00,
2013-01-26 00:57:00,5.7,-9.3,30.10,NNW,332,0.0,0.0,49,0.00,,,0.00,VWS V14.01,2013-01-26 05:57:00,
2013-01-26 01:02:00,5.7,-9.3,30.10,North,6,0.0,0.0,49,0.00,,,0.00,VWS V14.01,2013-01-26 06:02:00,
2013-01-26 01:07:00,5.4,-9.6,30.10,North,6,0.0,0.0,49,0.00,,,0.00,VWS V14.01,2013-01-26 06:07:00,
2013-01-26 01:12:00,5.2,-9.8,30.10,North,6,0.0,0.0,49,0.00,,,0.00,VWS V14.01,2013-01-26 06:12:00,
2013-01-26 01:17:00,5.2,-9.8,30.10,North,6,0.0,0.0,49,0.00,,,0.00,VWS V14.01,2013-01-26 06:17:00,
2013-01-26 01:22:00,5.2,-9.8,30.10,North,6,0.0,0.0,49,0.00,,,0.00,VWS V14.01,2013-01-26 06:22:00,
2013-01-26 01:27:00,5.2,-9.8,30.10,North,6,0.0,0.0,49,0.00,,,0.00,VWS V14.01,2013-01-26 06:27:00,
2013-01-26 01:32:00,5.2,-9.8,30.10,North,6,0.0,0.0,49,0.00,,,0.00,VWS V14.01,2013-01-26 06:32:00,
2013-01-26 01:37:00,5.2,-9.8,30.10,North,6,0.0,0.0,49,0.00,,,0.00,VWS V14.01,2013-01-26 06:37:00,
2013-01-26 01:42:00,5.2,-9.8,30.10,North,6,0.0,0.0,49,0.00,,,0.00,VWS V14.01,2013-01-26 06:42:00,
2013-01-26 01:47:00,5.2,-9.8,30.10,North,6,0.0,0.0,49,0.00,,,0.00,VWS V14.01,2013-01-26 06:47:00,
2013-01-26 01:52:00,5.2,-9.8,30.10,North,6,0.0,0.0,49,0.00,,,0.00,VWS V14.01,2013-01-26 06:52:00,
2013-01-26 01:57:00,4.1,-10.8,30.10,North,6,0.0,0.0,49,0.00,,,0.00,VWS V14.01,2013-01-26 06:57:00,
2013-01-26 02:02:00,3.9,-11.0,30.10,North,6,0.0,0.0,49,0.00,,,0.00,VWS V14.01,2013-01-26 07:02:00,
2013-01-26 02:08:00,3.9,-11.0,30.10,North,6,0.0,0.0,49,0.00,,,0.00,VWS V14.01,2013-01-26 07:08:00,
2013-01-26 02:13:00,3.9,-11.0,30.10,North,6,0.0,0.0,49,0.00,,,0.00,VWS V14.01,2013-01-26 07:13:00,
2013-01-26 02:18:00,3.9,-11.0,30.10,North,6,0.0,0.0,49,0.00,,,0.00,VWS V14.01,2013-01-26 07:18:00,
2013-01-26 02:23:00,3.9,-11.0,30.10,North,6,0.0,0.0,49,0.00,,,0.00,VWS V14.01,2013-01-26 07:23:00,
2013-01-26 02:28:00,3.9,-11.0,30.10,North,6,0.0,0.0,49,0.00,,,0.00,VWS V14.01,2013-01-26 07:28:00,
2013-01-26 02:33:00,0.9,-13.8,30.10,North,6,0.0,0.0,49,0.00,,,0.00,VWS V14.01,2013-01-26 07:33:00,
2013-01-26 02:38:00,0.3,-14.3,30.10,North,6,0.0,0.0,49,0.00,,,0.00,VWS V14.01,2013-01-26 07:38:00,
2013-01-26 02:43:00,0.3,-14.3,30.10,North,6,0.0,0.0,49,0.00,,SCT027,0.00,VWS V14.01,2013-01-26 07:43:00,
2013-01-26 02:48:00,-0.4,-15.0,30.10,North,6,0.0,0.0,49,0.00,,SCT027,0.00,VWS V14.01,2013-01-26 07:48:00,
2013-01-26 02:53:00,-0.4,-15.0,30.10,North,6,0.0,0.0,49,0.00,,SCT027,0.00,VWS V14.01,2013-01-26 07:53:00,
2013-01-26 02:58:00,-0.9,-15.5,30.10,North,6,0.0,0.0,49,0.00,,SCT027,0.00,VWS V14.01,2013-01-26 07:58:00,
2013-01-26 03:03:00,-1.5,-16.0,30.10,North,6,0.0,0.0,49,0.00,,SCT027,0.00,VWS V14.01,2013-01-26 08:03:00,
2013-01-26 03:08:00,-1.5,-16.0,30.10,North,6,0.0,0.0,49,0.00,,SCT027,0.00,VWS V14.01,2013-01-26 08:08:00,
2013-01-26 03:13:00,-2.2,-16.7,30.10,North,6,0.0,0.0,49,0.00,,SCT027,0.00,VWS V14.01,2013-01-26 08:13:00,
2013-01-26 03:18:00,-2.2,-16.7,30.10,North,6,0.0,0.0,49,0.00,,SCT027,0.00,VWS V14.01,2013-01-26 08:18:00,
2013-01-26 03:23:00,-2.7,-17.2,30.10,North,6,0.0,0.0,49,0.00,,SCT027,0.00,VWS V14.01,2013-01-26 08:23:00,
2013-01-26 03:28:00,-3.1,-17.5,30.10,North,6,0.0,0.0,49,0.00,,SCT027,0.00,VWS V14.01,2013-01-26 08:28:00,
2013-01-26 03:33:00,-3.1,-17.5,30.13,North,6,0.0,0.0,49,0.00,,SCT027,0.00,VWS V14.01,2013-01-26 08:33:00,
2013-01-26 03:38:00,-3.6,-18.0,30.13,North,6,0.0,0.0,49,0.00,,SCT027,0.00,VWS V14.01,2013-01-26 08:38:00,
2013-01-26 03:43:00,-3.8,-18.2,30.13,North,6,0.0,0.0,49,0.00,,CLR,0.00,VWS V14.01,2013-01-26 08:43:00,
2013-01-26 03:48:00,-4.0,-18.3,30.13,North,6,0.0,0.0,49,0.00,,CLR,0.00,VWS V14.01,2013-01-26 08:48:00,
2013-01-26 03:53:00,-4.2,-18.5,30.13,North,6,0.0,0.0,49,0.00,,CLR,0.00,VWS V14.01,2013-01-26 08:53:00,
2013-01-26 03:58:00,-4.4,-18.7,30.13,North,6,0.0,0.0,49,0.00,,CLR,0.00,VWS V14.01,2013-01-26 08:58:00,
2013-01-26 04:03:00,-4.5,-18.8,30.13,North,6,0.0,0.0,49,0.00,,CLR,0.00,VWS V14.01,2013-01-26 09:03:00,
2013-01-26 04:08:00,-4.7,-19.0,30.13,North,6,0.0,0.0,49,0.00,,CLR,0.00,VWS V14.01,2013-01-26 09:08:00,
2013-01-26 04:13:00,-5.1,-19.3,30.13,North,6,0.0,0.0,49,0.00,,CLR,0.00,VWS V14.01,2013-01-26 09:13:00,
2013-01-26 04:18:00,-5.3,-19.5,30.13,North,6,0.0,0.0,49,0.00,,CLR,0.00,VWS V14.01,2013-01-26 09:18:00,
2013-01-26 04:23:00,-5.4,-19.7,30.13,North,6,0.0,0.0,49,0.00,,CLR,0.00,VWS V14.01,2013-01-26 09:23:00,
2013-01-26 04:28:00,-5.6,-19.8,30.13,North,6,0.0,0.0,49,0.00,,CLR,0.00,VWS V14.01,2013-01-26 09:28:00,
2013-01-26 04:33:00,-5.6,-19.8,30.13,North,6,0.0,0.0,49,0.00,,CLR,0.00,VWS V14.01,2013-01-26 09:33:00,
2013-01-26 04:38:00,-5.8,-20.0,30.13,North,6,0.0,0.0,49,0.00,,CLR,0.00,VWS V14.01,2013-01-26 09:38:00,
2013-01-26 04:43:00,-6.0,-20.2,30.13,North,6,0.0,0.0,49,0.00,,CLR,0.00,VWS V14.01,2013-01-26 09:43:00,
2013-01-26 04:48:00,-6.2,-20.3,30.13,North,6,0.0,0.0,49,0.00,,CLR,0.00,VWS V14.01,2013-01-26 09:48:00,
2013-01-26 04:53:00,-6.2,-20.3,30.13,North,6,0.0,0.0,49,0.00,,CLR,0.00,VWS V14.01,2013-01-26 09:53:00,
2013-01-26 04:58:00,-6.3,-20.5,30.13,North,6,0.0,0.0,49,0.00,,CLR,0.00,VWS V14.01,2013-01-26 09:58:00,
2013-01-26 05:03:00,-6.3,-20.5,30.13,North,6,0.0,0.0,49,0.00,,CLR,0.00,VWS V14.01,2013-01-26 10:03:00,
2013-01-26 05:08:00,-6.5,-20.7,30.13,North,6,0.0,0.0,49,0.00,,CLR,0.00,VWS V14.01,2013-01-26 10:08:00,
2013-01-26 05:13:00,-6.7,-20.8,30.13,North,6,0.0,0.0,49,0.00,,CLR,0.00,VWS V14.01,2013-01-26 10:13:00,
2013-01-26 05:18:00,-6.9,-21.0,30.13,North,6,0.0,0.0,49,0.00,,CLR,0.00,VWS V14.01,2013-01-26 10:18:00,
2013-01-26 05:23:00,-7.1,-21.2,30.13,North,6,0.0,0.0,49,0.00,,CLR,0.00,VWS V14.01,2013-01-26 10:23:00,
2013-01-26 05:28:00,-7.2,-21.3,30.13,North,6,0.0,0.0,49,0.00,,CLR,0.00,VWS V14.01,2013-01-26 10:28:00,
2013-01-26 05:33:00,-7.4,-21.5,30.13,North,6,0.0,0.0,49,0.00,,CLR,0.00,VWS V14.01,2013-01-26 10:33:00,
2013-01-26 05:38:00,-7.6,-21.7,30.13,North,6,0.0,0.0,49,0.00,,CLR,0.00,VWS V14.01,2013-01-26 10:38:00,
2013-01-26 05:43:00,-7.6,-21.7,30.13,North,6,0.0,0.0,49,0.00,,CLR,0.00,VWS V14.01,2013-01-26 10:43:00,
2013-01-26 05:48:00,-7.8,-21.8,30.13,North,6,0.0,0.0,49,0.00,,CLR,0.00,VWS V14.01,2013-01-26 10:48:00,
2013-01-26 05:53:00,-8.0,-22.0,30.13,North,6,0.0,0.0,49,0.00,,CLR,0.00,VWS V14.01,2013-01-26 10:53:00,
2013-01-26 05:58:00,-8.1,-22.2,30.13,North,6,0.0,0.0,49,0.00,,CLR,0.00,VWS V14.01,2013-01-26 10:58:00,
2013-01-26 06:03:00,-8.3,-22.4,30.16,North,6,0.0,0.0,49,0.00,,CLR,0.00,VWS V14.01,2013-01-26 11:03:00,
2013-01-26 06:08:00,-8.5,-22.5,30.16,North,6,0.0,0.0,49,0.00,,CLR,0.00,VWS V14.01,2013-01-26 11:08:00,
2013-01-26 06:13:00,-8.7,-22.7,30.16,North,6,0.0,0.0,49,0.00,,CLR,0.00,VWS V14.01,2013-01-26 11:13:00,
2013-01-26 06:18:00,-8.9,-22.9,30.13,North,6,0.0,0.0,49,0.00,,CLR,0.00,VWS V14.01,2013-01-26 11:18:00,
2013-01-26 06:23:00,-9.0,-23.0,30.13,North,6,0.0,0.0,49,0.00,,CLR,0.00,VWS V14.01,2013-01-26 11:23:00,
2013-01-26 06:28:00,-9.2,-23.2,30.13,North,6,0.0,0.0,49,0.00,,CLR,0.00,VWS V14.01,2013-01-26 11:28:00,
2013-01-26 06:33:00,-9.4,-23.4,30.16,North,6,0.0,0.0,49,0.00,,CLR,0.00,VWS V14.01,2013-01-26 11:33:00,
2013-01-26 06:38:00,-9.4,-23.4,30.16,North,6,0.0,0.0,49,0.00,,CLR,0.00,VWS V14.01,2013-01-26 11:38:00,
2013-01-26 06:43:00,-9.6,-23.5,30.16,North,6,0.0,0.0,49,0.00,,CLR,0.00,VWS V14.01,2013-01-26 11:43:00,
2013-01-26 06:48:00,-9.6,-23.5,30.16,North,6,0.0,0.0,49,0.00,,CLR,0.00,VWS V14.01,2013-01-26 11:48:00,
2013-01-26 06:53:00,-9.9,-23.9,30.16,North,6,0.0,0.0,49,0.00,,CLR,0.00,VWS V14.01,2013-01-26 11:53:00,
2013-01-26 06:58:00,-10.1,-24.0,30.16,North,6,0.0,0.0,49,0.00,,CLR,0.00,VWS V14.01,2013-01-26 11:58:00,
2013-01-26 07:03:00,-10.3,-24.2,30.16,North,6,0.0,0.0,49,0.00,,CLR,0.00,VWS V14.01,2013-01-26 12:03:00,
2013-01-26 07:08:00,-10.5,-24.4,30.16,North,6,0.0,0.0,49,0.00,,CLR,0.00,VWS V14.01,2013-01-26 12:08:00,
2013-01-26 07:13:00,-10.7,-24.5,30.16,North,6,0.0,0.0,49,0.00,,CLR,0.00,VWS V14.01,2013-01-26 12:13:00,
2013-01-26 07:18:00,-10.8,-24.7,30.16,North,6,0.0,0.0,49,0.00,,CLR,0.00,VWS V14.01,2013-01-26 12:18:00,
2013-01-26 07:23:00,-10.8,-24.7,30.16,North,6,0.0,0.0,49,0.00,,CLR,0.00,VWS V14.01,2013-01-26 12:23:00,
2013-01-26 07:28:00,-10.8,-24.7,30.16,North,6,0.0,0.0,49,0.00,,CLR,0.00,VWS V14.01,2013-01-26 12:28:00,
2013-01-26 07:33:00,-11.0,-24.9,30.19,North,6,0.0,0.0,49,0.00,,CLR,0.00,VWS V14.01,2013-01-26 12:33:00,
2013-01-26 07:38:00,-11.0,-24.9,30.19,North,6,0.0,0.0,49,0.00,,CLR,0.00,VWS V14.01,2013-01-26 12:38:00,
2013-01-26 07:43:00,-11.0,-24.9,30.19,North,6,0.0,0.0,49,0.00,,CLR,0.00,VWS V14.01,2013-01-26 12:43:00,
2013-01-26 07:48:00,-11.0,-24.9,30.19,North,6,0.0,0.0,49,0.00,,CLR,0.00,VWS V14.01,2013-01-26 12:48:00,
2013-01-26 07:53:00,-11.0,-24.9,30.19,North,6,0.0,0.0,49,0.00,,CLR,0.00,VWS V14.01,2013-01-26 12:53:00,
2013-01-26 07:58:00,-11.0,-24.9,30.19,North,6,0.0,0.0,49,0.00,,CLR,0.00,VWS V14.01,2013-01-26 12:58:00,
2013-01-26 08:04:00,-10.8,-24.7,30.19,North,6,0.0,0.0,49,0.00,,CLR,0.00,VWS V14.01,2013-01-26 13:04:00,
2013-01-26 08:09:00,-10.7,-24.5,30.19,North,6,0.0,0.0,49,0.00,,CLR,0.00,VWS V14.01,2013-01-26 13:09:00,
2013-01-26 08:14:00,-10.3,-24.2,30.19,North,6,0.0,0.0,49,0.00,,CLR,0.00,VWS V14.01,2013-01-26 13:14:00,
2013-01-26 08:19:00,-9.9,-23.9,30.19,North,6,0.0,0.0,49,0.00,,CLR,0.00,VWS V14.01,2013-01-26 13:19:00,
2013-01-26 08:24:00,-9.6,-23.5,30.19,North,6,0.0,0.0,49,0.00,,CLR,0.00,VWS V14.01,2013-01-26 13:24:00,
2013-01-26 08:29:00,-9.0,-23.0,30.19,North,6,0.0,0.0,49,0.00,,CLR,0.00,VWS V14.01,2013-01-26 13:29:00,
2013-01-26 08:34:00,-8.3,-22.4,30.19,North,6,0.0,0.0,49,0.00,,CLR,0.00,VWS V14.01,2013-01-26 13:34:00,
2013-01-26 08:39:00,-7.6,-21.7,30.19,North,6,0.0,0.0,49,0.00,,CLR,0.00,VWS V14.01,2013-01-26 13:39:00,
2013-01-26 08:44:00,-6.9,-21.0,30.19,North,6,0.0,0.0,49,0.00,,CLR,0.00,VWS V14.01,2013-01-26 13:44:00,
2013-01-26 08:49:00,-6.2,-20.3,30.19,North,6,0.0,0.0,49,0.00,,CLR,0.00,VWS V14.01,2013-01-26 13:49:00,
2013-01-26 08:54:00,-5.1,-19.3,30.19,North,6,0.0,0.0,49,0.00,,CLR,0.00,VWS V14.01,2013-01-26 13:54:00,
2013-01-26 08:59:00,-4.4,-18.7,30.19,North,6,0.0,0.0,49,0.00,,CLR,0.00,VWS V14.01,2013-01-26 13:59:00,
2013-01-26 09:04:00,-3.8,-18.2,30.19,North,6,0.0,0.0,49,0.00,,CLR,0.00,VWS V14.01,2013-01-26 14:04:00,
2013-01-26 09:09:00,-3.1,-17.5,30.19,North,6,0.0,0.0,49,0.00,,CLR,0.00,VWS V14.01,2013-01-26 14:09:00,
2013-01-26 09:14:00,-2.2,-16.7,30.19,North,6,0.0,0.0,49,0.00,,CLR,0.00,VWS V14.01,2013-01-26 14:14:00,
2013-01-26 09:19:00,-1.8,-16.3,30.19,North,6,0.0,0.0,49,0.00,,CLR,0.00,VWS V14.01,2013-01-26 14:19:00,
2013-01-26 09:24:00,-0.9,-15.5,30.19,North,6,0.0,0.0,49,0.00,,CLR,0.00,VWS V14.01,2013-01-26 14:24:00,
2013-01-26 09:29:00,0.0,-14.6,30.19,North,6,0.0,0.0,49,0.00,,CLR,0.00,VWS V14.01,2013-01-26 14:29:00,
2013-01-26 09:34:00,1.6,-13.1,30.19,North,6,0.0,0.0,49,0.00,,CLR,0.00,VWS V14.01,2013-01-26 14:34:00,
2013-01-26 09:39:00,3.2,-11.6,30.19,North,6,0.0,0.0,49,0.00,,CLR,0.00,VWS V14.01,2013-01-26 14:39:00,
2013-01-26 09:44:00,3.9,-11.0,30.19,North,6,0.0,0.0,49,0.00,,CLR,0.00,VWS V14.01,2013-01-26 14:44:00,
2013-01-26 09:49:00,4.6,-10.3,30.19,North,6,0.0,0.0,49,0.00,,CLR,0.00,VWS V14.01,2013-01-26 14:49:00,
2013-01-26 09:54:00,5.4,-9.6,30.19,North,6,0.0,0.0,49,0.00,,CLR,0.00,VWS V14.01,2013-01-26 14:54:00,
2013-01-26 09:59:00,5.4,-9.6,30.19,NW,305,2.2,2.2,49,0.00,,CLR,0.00,VWS V14.01,2013-01-26 14:59:00,
2013-01-26 10:04:00,5.0,-10.0,30.19,SW,232,3.6,3.6,49,0.00,,CLR,0.00,VWS V14.01,2013-01-26 15:04:00,
2013-01-26 10:09:00,5.0,-10.0,30.19,NW,320,0.0,0.0,49,0.00,,CLR,0.00,VWS V14.01,2013-01-26 15:09:00,
2013-01-26 10:14:00,5.2,-9.8,30.19,WNW,302,0.0,0.0,49,0.00,,CLR,0.00,VWS V14.01,2013-01-26 15:14:00,
2013-01-26 10:19:00,5.4,-9.6,30.19,North,7,3.1,3.1,49,0.00,,CLR,0.00,VWS V14.01,2013-01-26 15:19:00,
2013-01-26 10:24:00,5.5,-9.5,30.19,SW,230,0.0,0.0,49,0.00,,CLR,0.00,VWS V14.01,2013-01-26 15:24:00,
2013-01-26 10:29:00,5.4,-9.6,30.19,SW,228,3.1,3.1,49,0.00,,CLR,0.00,VWS V14.01,2013-01-26 15:29:00,
2013-01-26 10:34:00,5.5,-9.5,30.19,WSW,241,2.7,2.7,49,0.00,,CLR,0.00,VWS V14.01,2013-01-26 15:34:00,
2013-01-26 10:39:00,5.5,-9.5,30.19,NNW,328,3.1,3.1,49,0.00,,CLR,0.00,VWS V14.01,2013-01-26 15:39:00,
2013-01-26 10:44:00,5.5,-9.5,30.19,NNW,344,6.3,6.3,49,0.00,,CLR,0.00,VWS V14.01,2013-01-26 15:44:00,
2013-01-26 10:49:00,5.7,-9.3,30.19,NNW,345,2.2,2.2,49,0.00,,CLR,0.00,VWS V14.01,2013-01-26 15:49:00,
2013-01-26 10:54:00,6.4,-8.6,30.19,NW,306,2.7,2.7,49,0.00,,CLR,0.00,VWS V14.01,2013-01-26 15:54:00,
2013-01-26 10:59:00,7.3,-7.8,30.19,SSW,201,2.7,4.0,49,0.00,,CLR,0.00,VWS V14.01,2013-01-26 15:59:00,
2013-01-26 11:04:00,8.6,-6.6,30.19,NW,319,2.2,2.2,49,0.00,,CLR,0.00,VWS V14.01,2013-01-26 16:04:00,
2013-01-26 11:09:00,8.8,-6.5,30.19,NNW,330,5.8,5.8,49,0.00,,CLR,0.00,VWS V14.01,2013-01-26 16:09:00,
2013-01-26 11:14:00,8.6,-6.6,30.19,NNE,21,8.1,8.1,49,0.00,,CLR,0.00,VWS V14.01,2013-01-26 16:14:00,
2013-01-26 11:19:00,7.9,-7.3,30.19,North,6,2.7,4.9,49,0.00,,CLR,0.00,VWS V14.01,2013-01-26 16:19:00,
2013-01-26 11:24:00,7.5,-7.6,30.19,West,276,3.1,5.4,49,0.00,,CLR,0.00,VWS V14.01,2013-01-26 16:24:00,
2013-01-26 11:30:00,7.5,-7.6,30.19,NW,315,4.0,5.4,49,0.00,,CLR,0.00,VWS V14.01,2013-01-26 16:30:00,
2013-01-26 11:35:00,7.7,-7.5,30.19,North,10,3.1,3.1,49,0.00,,CLR,0.00,VWS V14.01,2013-01-26 16:35:00,
2013-01-26 11:40:00,8.1,-7.1,30.19,SW,226,0.0,0.0,49,0.00,,CLR,0.00,VWS V14.01,2013-01-26 16:40:00,
2013-01-26 11:45:00,8.6,-6.6,30.19,NNW,341,5.8,5.8,49,0.00,,SCT065,0.00,VWS V14.01,2013-01-26 16:45:00,
2013-01-26 11:50:00,8.4,-6.8,30.19,North,3,3.6,3.6,49,0.00,,SCT065,0.00,VWS V14.01,2013-01-26 16:50:00,
2013-01-26 11:55:00,8.4,-6.8,30.19,SW,229,3.6,4.0,49,0.00,,SCT065,0.00,VWS V14.01,2013-01-26 16:55:00,
2013-01-26 12:00:00,8.6,-6.6,30.19,NW,323,2.7,4.0,49,0.00,,SCT065,0.00,VWS V14.01,2013-01-26 17:00:00,
2013-01-26 12:05:00,8.8,-6.5,30.19,NW,312,0.0,0.0,49,0.00,,SCT065,0.00,VWS V14.01,2013-01-26 17:05:00,
2013-01-26 12:10:00,8.8,-6.5,30.19,SW,228,2.2,2.2,49,0.00,,SCT065,0.00,VWS V14.01,2013-01-26 17:10:00,
2013-01-26 12:15:00,9.1,-6.1,30.19,NW,318,3.1,3.1,49,0.00,,SCT065,0.00,VWS V14.01,2013-01-26 17:15:00,
2013-01-26 12:20:00,9.3,-6.0,30.19,NW,305,0.0,0.0,49,0.00,,SCT065,0.00,VWS V14.01,2013-01-26 17:20:00,
2013-01-26 12:25:00,9.3,-6.0,30.19,NNW,338,5.4,5.4,49,0.00,,SCT065,0.00,VWS V14.01,2013-01-26 17:25:00,
2013-01-26 12:30:00,9.3,-6.0,30.19,West,259,3.1,3.1,49,0.00,,SCT065,0.00,VWS V14.01,2013-01-26 17:30:00,
2013-01-26 12:35:00,9.5,-5.8,30.19,NNW,344,4.5,4.5,49,0.00,,SCT065,0.00,VWS V14.01,2013-01-26 17:35:00,
2013-01-26 12:40:00,9.7,-5.6,30.19,NNW,339,0.0,0.0,49,0.00,,SCT065,0.00,VWS V14.01,2013-01-26 17:40:00,
2013-01-26 12:45:00,10.0,-5.3,30.19,WSW,243,3.6,3.6,49,0.00,,FEW100,0.00,VWS V14.01,2013-01-26 17:45:00,
2013-01-26 12:50:00,10.2,-5.1,30.19,North,357,3.1,3.1,49,0.00,,FEW100,0.00,VWS V14.01,2013-01-26 17:50:00,
2013-01-26 12:55:00,10.8,-4.6,30.19,SSW,193,3.1,3.1,49,0.00,,FEW100,0.00,VWS V14.01,2013-01-26 17:55:00,
2013-01-26 13:00:00,11.1,-4.3,30.19,South,176,3.6,3.6,49,0.00,,FEW100,0.00,VWS V14.01,2013-01-26 18:00:00,
2013-01-26 13:05:00,11.1,-4.3,30.19,NNW,341,3.1,8.1,49,0.00,,FEW100,0.00,VWS V14.01,2013-01-26 18:05:00,
2013-01-26 13:10:00,10.8,-4.6,30.19,NNW,335,6.3,6.3,49,0.00,,FEW100,0.00,VWS V14.01,2013-01-26 18:10:00,
2013-01-26 13:15:00,10.8,-4.6,30.19,WSW,250,3.6,5.4,49,0.00,,FEW100,0.00,VWS V14.01,2013-01-26 18:15:00,
2013-01-26 13:20:00,11.1,-4.3,30.19,SW,235,3.6,3.6,49,0.00,,FEW100,0.00,VWS V14.01,2013-01-26 18:20:00,
2013-01-26 13:25:00,11.1,-4.3,30.19,NNW,338,3.1,3.1,49,0.00,,FEW100,0.00,VWS V14.01,2013-01-26 18:25:00,
2013-01-26 13:30:00,10.9,-4.5,30.19,North,10,3.1,3.1,49,0.00,,FEW100,0.00,VWS V14.01,2013-01-26 18:30:00,
2013-01-26 13:35:00,10.8,-4.6,30.19,WSW,237,2.2,5.8,49,0.00,,FEW100,0.00,VWS V14.01,2013-01-26 18:35:00,
2013-01-26 13:40:00,10.9,-4.5,30.19,SSW,197,0.0,3.1,49,0.00,,CLR,0.00,VWS V14.01,2013-01-26 18:40:00,
2013-01-26 13:45:00,11.7,-3.8,30.19,SSW,197,0.0,0.0,49,0.00,,CLR,0.00,VWS V14.01,2013-01-26 18:45:00,
2013-01-26 13:50:00,12.2,-3.3,30.22,WNW,292,2.7,2.7,49,0.00,,CLR,0.00,VWS V14.01,2013-01-26 18:50:00,
2013-01-26 13:55:00,12.2,-3.3,30.22,SW,233,2.2,2.2,49,0.00,,CLR,0.00,VWS V14.01,2013-01-26 18:55:00,
2013-01-26 14:00:00,12.0,-3.5,30.22,NNE,12,6.3,7.6,49,0.00,,CLR,0.00,VWS V14.01,2013-01-26 19:00:00,
2013-01-26 14:05:00,11.8,-3.6,30.22,WSW,249,2.7,4.0,49,0.00,,CLR,0.00,VWS V14.01,2013-01-26 19:05:00,
2013-01-26 14:10:00,11.8,-3.6,30.22,SSW,211,3.6,3.6,49,0.00,,CLR,0.00,VWS V14.01,2013-01-26 19:10:00,
2013-01-26 14:15:00,11.8,-3.6,30.22,SW,220,5.4,5.4,49,0.00,,CLR,0.00,VWS V14.01,2013-01-26 19:15:00,
2013-01-26 14:20:00,11.8,-3.6,30.22,NW,310,4.0,7.6,49,0.00,,CLR,0.00,VWS V14.01,2013-01-26 19:20:00,
2013-01-26 14:25:00,11.5,-4.0,30.22,North,357,2.7,2.7,49,0.00,,CLR,0.00,VWS V14.01,2013-01-26 19:25:00,
2013-01-26 14:30:00,11.3,-4.1,30.22,NW,316,3.1,3.1,49,0.00,,CLR,0.00,VWS V14.01,2013-01-26 19:30:00,
2013-01-26 14:35:00,11.5,-4.0,30.22,NW,326,2.7,3.1,49,0.00,,CLR,0.00,VWS V14.01,2013-01-26 19:35:00,
2013-01-26 14:40:00,11.7,-3.8,30.22,NNW,340,3.1,6.3,49,0.00,,OVC110,0.00,VWS V14.01,2013-01-26 19:40:00,
2013-01-26 14:45:00,11.5,-4.0,30.22,SSW,207,3.1,3.1,49,0.00,,OVC110,0.00,VWS V14.01,2013-01-26 19:45:00,
2013-01-26 14:50:00,11.5,-4.0,30.22,West,261,0.0,0.0,49,0.00,,OVC110,0.00,VWS V14.01,2013-01-26 19:50:00,
2013-01-26 14:55:00,11.7,-3.8,30.22,South,177,0.0,4.0,49,0.00,,OVC110,0.00,VWS V14.01,2013-01-26 19:55:00,
2013-01-26 15:00:00,11.7,-3.8,30.22,North,0,4.9,4.9,49,0.00,,OVC110,0.00,VWS V14.01,2013-01-26 20:00:00,
2013-01-26 15:05:00,11.3,-4.1,30.22,SSE,166,4.0,4.0,49,0.00,,OVC110,0.00,VWS V14.01,2013-01-26 20:05:00,
2013-01-26 15:10:00,11.1,-4.3,30.22,North,353,4.0,5.8,49,0.00,,OVC110,0.00,VWS V14.01,2013-01-26 20:10:00,
2013-01-26 15:15:00,10.9,-4.5,30.22,NW,318,5.8,6.3,49,0.00,,OVC110,0.00,VWS V14.01,2013-01-26 20:15:00,
2013-01-26 15:21:00,10.8,-4.6,30.22,NW,307,0.0,0.0,49,0.00,,OVC110,0.00,VWS V14.01,2013-01-26 20:21:00,
2013-01-26 15:26:00,10.9,-4.5,30.22,West,260,4.9,6.3,49,0.00,,OVC110,0.00,VWS V14.01,2013-01-26 20:26:00,
2013-01-26 15:31:00,10.9,-4.5,30.22,NW,309,5.4,6.3,49,0.00,,OVC110,0.00,VWS V14.01,2013-01-26 20:31:00,
2013-01-26 15:36:00,10.8,-4.6,30.22,WNW,303,4.9,5.4,49,0.00,,OVC110,0.00,VWS V14.01,2013-01-26 20:36:00,
2013-01-26 15:41:00,10.6,-4.8,30.22,West,278,0.0,0.0,49,0.00,,OVC110,0.00,VWS V14.01,2013-01-26 20:41:00,
2013-01-26 15:46:00,10.4,-5.0,30.22,West,280,4.0,5.8,49,0.00,,OVC110,0.00,VWS V14.01,2013-01-26 20:46:00,
2013-01-26 15:51:00,10.2,-5.1,30.25,NW,320,0.0,3.1,49,0.00,,OVC055,0.00,VWS V14.01,2013-01-26 20:51:00,
2013-01-26 15:56:00,10.2,-5.1,30.25,NNW,328,0.0,0.0,49,0.00,,OVC055,0.00,VWS V14.01,2013-01-26 20:56:00,
2013-01-26 16:01:00,10.2,-5.1,30.25,NW,312,4.5,4.5,49,0.00,,OVC055,0.00,VWS V14.01,2013-01-26 21:01:00,
2013-01-26 16:06:00,10.0,-5.3,30.25,WNW,291,2.2,2.7,49,0.00,,OVC055,0.00,VWS V14.01,2013-01-26 21:06:00,
2013-01-26 16:11:00,10.0,-5.3,30.25,NNW,345,2.7,3.1,49,0.00,,OVC055,0.00,VWS V14.01,2013-01-26 21:11:00,
2013-01-26 16:16:00,9.9,-5.5,30.25,West,265,3.6,3.6,49,0.00,,OVC055,0.00,VWS V14.01,2013-01-26 21:16:00,
2013-01-26 16:21:00,9.7,-5.6,30.25,NW,304,0.0,0.0,49,0.00,,OVC055,0.00,VWS V14.01,2013-01-26 21:21:00,
2013-01-26 16:26:00,9.5,-5.8,30.25,South,187,2.2,5.4,49,0.00,,OVC055,0.00,VWS V14.01,2013-01-26 21:26:00,
2013-01-26 16:31:00,9.5,-5.8,30.25,WNW,283,0.0,0.0,49,0.00,,OVC055,0.00,VWS V14.01,2013-01-26 21:31:00,
2013-01-26 16:36:00,9.3,-6.0,30.25,NW,313,4.9,4.9,49,0.00,,OVC055,0.00,VWS V14.01,2013-01-26 21:36:00,
2013-01-26 16:41:00,9.0,-6.3,30.25,WNW,284,0.0,0.0,49,0.00,,OVC050,0.00,VWS V14.01,2013-01-26 21:41:00,
2013-01-26 16:46:00,8.8,-6.5,30.25,South,184,0.0,0.0,49,0.00,,OVC050,0.00,VWS V14.01,2013-01-26 21:46:00,
2013-01-26 16:51:00,8.6,-6.6,30.25,SSW,204,0.0,0.0,49,0.00,,OVC050,0.00,VWS V14.01,2013-01-26 21:51:00,
2013-01-26 16:56:00,8.4,-6.8,30.25,WNW,297,0.0,0.0,49,0.00,,OVC050,0.00,VWS V14.01,2013-01-26 21:56:00,
2013-01-26 17:01:00,8.1,-7.1,30.25,WSW,245,4.0,4.0,49,0.00,,OVC050,0.00,VWS V14.01,2013-01-26 22:01:00,
2013-01-26 17:06:00,7.9,-7.3,30.25,WNW,302,0.0,0.0,49,0.00,,OVC050,0.00,VWS V14.01,2013-01-26 22:06:00,
2013-01-26 17:11:00,7.7,-7.5,30.25,WNW,295,0.0,0.0,49,0.00,,OVC050,0.00,VWS V14.01,2013-01-26 22:11:00,
2013-01-26 17:16:00,7.7,-7.5,30.25,WNW,295,0.0,0.0,49,0.00,,OVC050,0.00,VWS V14.01,2013-01-26 22:16:00,
2013-01-26 17:21:00,7.5,-7.6,30.25,WNW,295,0.0,0.0,49,0.00,,OVC050,0.00,VWS V14.01,2013-01-26 22:21:00,
2013-01-26 17:26:00,7.0,-8.1,30.25,WNW,295,0.0,0.0,49,0.00,,OVC050,0.00,VWS V14.01,2013-01-26 22:26:00,
2013-01-26 17:31:00,6.4,-8.6,30.25,WNW,295,0.0,0.0,49,0.00,,OVC050,0.00,VWS V14.01,2013-01-26 22:31:00,
2013-01-26 17:36:00,6.1,-9.0,30.25,WNW,295,0.0,0.0,49,0.00,,OVC050,0.00,VWS V14.01,2013-01-26 22:36:00,
2013-01-26 17:41:00,5.5,-9.5,30.25,WNW,295,0.0,0.0,49,0.00,,,0.00,VWS V14.01,2013-01-26 22:41:00,
2013-01-26 17:46:00,5.0,-10.0,30.25,WNW,295,0.0,0.0,49,0.00,,,0.00,VWS V14.01,2013-01-26 22:46:00,
2013-01-26 17:51:00,4.5,-10.5,30.25,WNW,295,0.0,0.0,49,0.00,,SCT023,0.00,VWS V14.01,2013-01-26 22:51:00,
2013-01-26 17:56:00,3.7,-11.1,30.25,WNW,295,0.0,0.0,49,0.00,,SCT023,0.00,VWS V14.01,2013-01-26 22:56:00,
2013-01-26 18:01:00,3.7,-11.1,30.25,WNW,295,0.0,0.0,49,0.00,,SCT023,0.00,VWS V14.01,2013-01-26 23:01:00,
2013-01-26 18:06:00,2.8,-12.0,30.25,WNW,295,0.0,0.0,49,0.00,,SCT023,0.00,VWS V14.01,2013-01-26 23:06:00,
2013-01-26 18:11:00,2.8,-12.0,30.25,WNW,295,0.0,0.0,49,0.00,,SCT023,0.00,VWS V14.01,2013-01-26 23:11:00,
2013-01-26 18:16:00,2.8,-12.0,30.25,WNW,295,0.0,0.0,49,0.00,,SCT023,0.00,VWS V14.01,2013-01-26 23:16:00,
2013-01-26 18:21:00,2.5,-12.3,30.25,WNW,295,0.0,0.0,49,0.00,,SCT023,0.00,VWS V14.01,2013-01-26 23:21:00,
2013-01-26 18:26:00,2.3,-12.5,30.25,WNW,295,0.0,0.0,49,0.00,,SCT023,0.00,VWS V14.01,2013-01-26 23:26:00,
2013-01-26 18:31:00,1.6,-13.1,30.25,WNW,295,0.0,0.0,49,0.00,,SCT023,0.00,VWS V14.01,2013-01-26 23:31:00,
2013-01-26 18:36:00,1.2,-13.5,30.25,WNW,295,0.0,0.0,49,0.00,,SCT023,0.00,VWS V14.01,2013-01-26 23:36:00,
2013-01-26 18:41:00,0.7,-14.0,30.25,WNW,295,0.0,0.0,49,0.00,,CLR,0.00,VWS V14.01,2013-01-26 23:41:00,
2013-01-26 18:46:00,0.3,-14.3,30.25,WNW,295,0.0,0.0,49,0.00,,CLR,0.00,VWS V14.01,2013-01-26 23:46:00,
2013-01-26 18:51:00,0.3,-14.3,30.25,WNW,295,0.0,0.0,49,0.00,,CLR,0.00,VWS V14.01,2013-01-26 23:51:00,
2013-01-26 18:56:00,0.0,-14.6,30.25,WNW,295,0.0,0.0,49,0.00,,CLR,0.00,VWS V14.01,2013-01-26 23:56:00,
2013-01-26 19:01:00,0.0,-14.6,30.25,WNW,295,0.0,0.0,49,0.00,,CLR,0.00,VWS V14.01,2013-01-27 00:01:00,
2013-01-26 19:06:00,-0.4,-15.0,30.25,WNW,295,0.0,0.0,49,0.00,,CLR,0.00,VWS V14.01,2013-01-27 00:06:00,
2013-01-26 19:11:00,-0.2,-14.8,30.25,WNW,295,0.0,0.0,49,0.00,,BKN041,0.00,VWS V14.01,2013-01-27 00:11:00,
2013-01-26 19:16:00,0.1,-14.5,30.25,WNW,295,0.0,0.0,49,0.00,,BKN041,0.00,VWS V14.01,2013-01-27 00:16:00,
2013-01-26 19:21:00,0.3,-14.3,30.25,WNW,295,0.0,0.0,49,0.00,,BKN041,0.00,VWS V14.01,2013-01-27 00:21:00,
2013-01-26 19:26:00,0.3,-14.3,30.25,WNW,295,0.0,0.0,49,0.00,,BKN041,0.00,VWS V14.01,2013-01-27 00:26:00,
2013-01-26 19:31:00,0.7,-14.0,30.25,WNW,295,0.0,0.0,49,0.00,,BKN041,0.00,VWS V14.01,2013-01-27 00:31:00,
2013-01-26 19:36:00,0.7,-14.0,30.25,WNW,295,0.0,0.0,49,0.00,,BKN041,0.00,VWS V14.01,2013-01-27 00:36:00,
2013-01-26 19:41:00,0.9,-13.8,30.25,WNW,295,0.0,0.0,49,0.00,,BKN041,0.00,VWS V14.01,2013-01-27 00:41:00,
2013-01-26 19:46:00,1.2,-13.5,30.31,WNW,295,0.0,0.0,49,0.00,,BKN041,0.00,VWS V14.01,2013-01-27 00:46:00,
2013-01-26 19:51:00,1.2,-13.5,30.31,WNW,295,0.0,0.0,49,0.00,,BKN041,0.00,VWS V14.01,2013-01-27 00:51:00,
2013-01-26 19:56:00,1.4,-13.3,30.31,WNW,295,0.0,0.0,49,0.00,,BKN041,0.00,VWS V14.01,2013-01-27 00:56:00,
2013-01-26 20:01:00,1.6,-13.1,30.31,WNW,295,0.0,0.0,49,0.00,,OVC036,0.00,VWS V14.01,2013-01-27 01:01:00,
2013-01-26 20:06:00,1.6,-13.1,30.31,WNW,295,0.0,0.0,49,0.00,,OVC036,0.00,VWS V14.01,2013-01-27 01:06:00,
2013-01-26 20:12:00,1.6,-13.1,30.31,WNW,295,0.0,0.0,49,0.00,,OVC036,0.00,VWS V14.01,2013-01-27 01:12:00,
2013-01-26 20:17:00,1.4,-13.3,30.31,WNW,295,0.0,0.0,49,0.00,,OVC036,0.00,VWS V14.01,2013-01-27 01:17:00,
2013-01-26 20:22:00,1.4,-13.3,30.31,WNW,295,0.0,0.0,49,0.00,,OVC036,0.00,VWS V14.01,2013-01-27 01:22:00,
2013-01-26 20:27:00,1.6,-13.1,30.31,WNW,295,0.0,0.0,49,0.00,,OVC036,0.00,VWS V14.01,2013-01-27 01:27:00,
2013-01-26 20:32:00,1.8,-13.0,30.31,WNW,295,0.0,0.0,49,0.00,,OVC036,0.00,VWS V14.01,2013-01-27 01:32:00,
2013-01-26 20:37:00,1.9,-12.8,30.31,WNW,295,0.0,0.0,49,0.00,,OVC036,0.00,VWS V14.01,2013-01-27 01:37:00,
2013-01-26 20:42:00,2.3,-12.5,30.31,WNW,295,0.0,0.0,49,0.00,,OVC040,0.00,VWS V14.01,2013-01-27 01:42:00,
2013-01-26 20:47:00,2.5,-12.3,30.31,WNW,295,0.0,0.0,49,0.00,,OVC040,0.00,VWS V14.01,2013-01-27 01:47:00,
2013-01-26 20:52:00,2.5,-12.3,30.31,WNW,295,0.0,0.0,49,0.00,,OVC040,0.00,VWS V14.01,2013-01-27 01:52:00,
2013-01-26 20:57:00,2.8,-12.0,30.31,WNW,295,0.0,0.0,49,0.00,,OVC040,0.00,VWS V14.01,2013-01-27 01:57:00,
2013-01-26 21:02:00,2.8,-12.0,30.31,WNW,295,0.0,0.0,49,0.00,,OVC040,0.00,VWS V14.01,2013-01-27 02:02:00,
2013-01-26 21:07:00,3.0,-11.8,30.31,WNW,295,0.0,0.0,49,0.00,,OVC040,0.00,VWS V14.01,2013-01-27 02:07:00,
2013-01-26 21:12:00,3.2,-11.6,30.31,WNW,295,0.0,0.0,49,0.00,,OVC040,0.00,VWS V14.01,2013-01-27 02:12:00,
2013-01-26 21:17:00,3.4,-11.5,30.31,WNW,295,0.0,0.0,49,0.00,,OVC040,0.00,VWS V14.01,2013-01-27 02:17:00,
2013-01-26 21:22:00,3.6,-11.3,30.31,WNW,295,0.0,0.0,49,0.00,,OVC040,0.00,VWS V14.01,2013-01-27 02:22:00,
2013-01-26 21:27:00,3.7,-11.1,30.31,WNW,295,0.0,0.0,49,0.00,,OVC040,0.00,VWS V14.01,2013-01-27 02:27:00,
2013-01-26 21:32:00,3.7,-11.1,30.31,WNW,295,0.0,0.0,49,0.00,,OVC040,0.00,VWS V14.01,2013-01-27 02:32:00,
2013-01-26 21:37:00,3.7,-11.1,30.31,WNW,295,0.0,0.0,49,0.00,,OVC040,0.00,VWS V14.01,2013-01-27 02:37:00,
2013-01-26 21:42:00,3.7,-11.1,30.31,WNW,295,0.0,0.0,49,0.00,,,0.00,VWS V14.01,2013-01-27 02:42:00,
2013-01-26 21:47:00,4.1,-10.8,30.31,WNW,295,0.0,0.0,49,0.00,,,0.00,VWS V14.01,2013-01-27 02:47:00,
2013-01-26 21:52:00,4.1,-10.8,30.31,WNW,295,0.0,0.0,49,0.00,,,0.00,VWS V14.01,2013-01-27 02:52:00,
2013-01-26 21:57:00,4.3,-10.6,30.31,WNW,295,0.0,0.0,49,0.00,,,0.00,VWS V14.01,2013-01-27 02:57:00,
2013-01-26 22:02:00,4.5,-10.5,30.31,WNW,295,0.0,0.0,49,0.00,,,0.00,VWS V14.01,2013-01-27 03:02:00,
2013-01-26 22:07:00,4.6,-10.3,30.31,WNW,295,0.0,0.0,49,0.00,,,0.00,VWS V14.01,2013-01-27 03:07:00,
2013-01-26 22:12:00,4.8,-10.1,30.31,WNW,295,0.0,0.0,49,0.00,,,0.00,VWS V14.01,2013-01-27 03:12:00,
2013-01-26 22:17:00,5.0,-10.0,30.31,WNW,295,0.0,0.0,49,0.00,,,0.00,VWS V14.01,2013-01-27 03:17:00,
2013-01-26 22:22:00,5.2,-9.8,30.31,WNW,295,0.0,0.0,49,0.00,,,0.00,VWS V14.01,2013-01-27 03:22:00,
2013-01-26 22:27:00,5.4,-9.6,30.31,WNW,295,0.0,0.0,49,0.00,,,0.00,VWS V14.01,2013-01-27 03:27:00,
2013-01-26 22:33:00,5.5,-9.5,30.31,WNW,295,0.0,0.0,49,0.00,,,0.00,VWS V14.01,2013-01-27 03:33:00,
2013-01-26 22:38:00,5.5,-9.5,30.31,WNW,295,0.0,0.0,49,0.00,,,0.00,VWS V14.01,2013-01-27 03:38:00,
2013-01-26 22:43:00,5.9,-9.1,30.31,WNW,295,0.0,0.0,49,0.00,,,0.00,VWS V14.01,2013-01-27 03:43:00,
2013-01-26 22:48:00,5.9,-9.1,30.31,WNW,295,0.0,0.0,49,0.00,,,0.00,VWS V14.01,2013-01-27 03:48:00,
2013-01-26 22:53:00,5.9,-9.1,30.31,WNW,295,0.0,0.0,49,0.00,,,0.00,VWS V14.01,2013-01-27 03:53:00,
2013-01-26 22:58:00,5.9,-9.1,30.31,WNW,295,0.0,0.0,49,0.00,,,0.00,VWS V14.01,2013-01-27 03:58:00,
2013-01-26 23:03:00,5.9,-9.1,30.31,WNW,295,0.0,0.0,49,0.00,,,0.00,VWS V14.01,2013-01-27 04:03:00,
2013-01-26 23:08:00,5.9,-9.1,30.31,WNW,295,0.0,0.0,49,0.00,,,0.00,VWS V14.01,2013-01-27 04:08:00,
2013-01-26 23:13:00,5.9,-9.1,30.31,WNW,295,0.0,0.0,49,0.00,,,0.00,VWS V14.01,2013-01-27 04:13:00,
2013-01-26 23:18:00,5.9,-9.1,30.31,WNW,295,0.0,0.0,49,0.00,,,0.00,VWS V14.01,2013-01-27 04:18:00,
2013-01-26 23:23:00,5.9,-9.1,30.31,WNW,295,0.0,0.0,49,0.00,,,0.00,VWS V14.01,2013-01-27 04:23:00,
2013-01-26 23:28:00,5.9,-9.1,30.31,WNW,295,0.0,0.0,49,0.00,,,0.00,VWS V14.01,2013-01-27 04:28:00,
2013-01-26 23:33:00,5.9,-9.1,30.31,WNW,295,0.0,0.0,49,0.00,,,0.00,VWS V14.01,2013-01-27 04:33:00,
2013-01-26 23:38:00,5.7,-9.3,30.31,WNW,295,0.0,0.0,49,0.00,,,0.00,VWS V14.01,2013-01-27 04:38:00,
2013-01-26 23:43:00,5.5,-9.5,30.31,WNW,295,0.0,0.0,49,0.00,,,0.00,VWS V14.01,2013-01-27 04:43:00,
2013-01-26 23:48:00,5.5,-9.5,30.31,WNW,295,0.0,0.0,49,0.00,,,0.00,VWS V14.01,2013-01-27 04:48:00,
2013-01-26 23:53:00,5.5,-9.5,30.31,WNW,295,0.0,0.0,49,0.00,,,0.00,VWS V14.01,2013-01-27 04:53:00,
2013-01-26 23:58:00,5.4,-9.6,30.31,WNW,295,0.0,0.0,49,0.00,,,0.00,VWS V14.01,2013-01-27 04:58:00,